Weather Roundup
Issued by NWS

Home | Current Version | Previous Version | Text Only | Print | Product List | Glossary On
Versions: 1 2 3 4 5 6 7 8 9 10 11 12 13 14 15 16 17 18 19 20 21 22 23 24 25 26 27 28 29 30 31 32 33 34 35 36 37 38 39 40 41 42 43 44 45 46 47 48 49 50
000
NZUS93 KARX 280610
HRRWXR

CURRENT HOURLY OBSERVATIONS ACROSS
MUCH OF THE UPPER MISSISSIPPI VALLEY
NATIONAL WEATHER SERVICE LA CROSSE WI
100 AM CDT SAT MAR 28 2015


...SOUTHEAST MINNESOTA...


CITY           SKY/WX    TMP DP  RH WIND       PRES   REMARKS
ROCHESTER      PTCLDY    18  11  74 S5        30.16F WCI  11
ROCHESTER/MAYO CLOUDY    23  12  63 SE5       30.17S WCI  17
WINONA         CLEAR     23  14  68 CALM      30.22S
AUSTIN         PTCLDY    21  14  73 CALM      30.16F
ALBERT LEA     CLOUDY    25  16  68 SE6       30.15F WCI  18
DODGE CENTER   PTCLDY    19  12  73 S3        30.16S
PRESTON        PTCLDY    20  11  67 CALM      30.17S
OWATONNA       PTCLDY    23  10  58 SE6       30.16S WCI  16
FARIBAULT      CLOUDY    25   9  50 SE5       30.18S WCI  19
$$

...ELSEWHERE IN MINNESOTA...


CITY           SKY/WX    TMP DP  RH WIND       PRES   REMARKS
MINNEAPOLIS    MOCLDY    25   9  50 SE5       30.18F WCI  19
INTNL FALLS    CLEAR     16  10  77 CALM      30.13R
DULUTH         FAIR      20  12  71 E3        30.15F
RED WING       MOCLDY    21  16  79 CALM      30.19S
REDWOOD FALLS  CLOUDY    31  24  75 SW5       30.14S WCI  26
MANKATO        CLOUDY    27  14  59 SE7       30.16S WCI  19
WORTHINGTON    CLOUDY    27  23  86 SE7       30.12S WCI  19
FAIRMONT       CLOUDY    28  19  69 SE8       30.13S WCI  20
$$

...SOUTHWEST WISCONSIN...


CITY           SKY/WX    TMP DP  RH WIND       PRES   REMARKS
LA CROSSE      CLEAR     24  13  62 CALM      30.21S
PRAIRIE DU CHI PTCLDY    19  12  73 CALM      30.21F
BOSCOBEL       CLEAR     18  13  80 CALM      30.22S
LONE ROCK      CLEAR     19  12  74 NE5       30.22R WCI  12
PLATTEVILLE    CLEAR     24  13  65 CALM      30.19S
FORT MC COY    CLEAR     14  10  82 CALM      30.21F
CAMP DOUGLAS   CLEAR     14  13  98 E2        30.19F
VIROQUA        FAIR      22  12  63 CALM      30.17S
WIS DELLS      CLEAR     20   9  62 S3        30.20S
$$

...ELSEWHERE IN WISCONSIN...


CITY           SKY/WX    TMP DP  RH WIND       PRES   REMARKS
MILWAUKEE      PTCLDY    23  11  60 W6        30.23R WCI  16
MADISON        CLEAR     23   8  52 S6        30.21S WCI  16
GREEN BAY      CLEAR     20  12  71 CALM      30.24R
EAU CLAIRE     PTCLDY    22  11  62 S5        30.19S WCI  16
BLACK RVR FLS  FAIR      11   7  83 CALM      30.20S
MEDFORD        CLEAR     18  12  77 S3        30.16S
WAUSAU         CLEAR     18   9  68 E8        30.17R WCI   8
WIS RAPIDS     CLEAR     16   9  74 CALM      30.20S
MARSHFIELD     CLEAR     21  14  74 CALM      30.17S
RICE LAKE      PTCLDY    23  15  71 CALM      30.19S
$$

...NORTHEAST IOWA...


CITY           SKY/WX    TMP DP  RH WIND       PRES   REMARKS
DECORAH        PTCLDY    21  10  63 CALM      30.17F
MASON CITY     CLOUDY    25  14  63 SE9       30.17F WCI  15
CHARLES CITY   CLOUDY    23  16  74 E6        30.18S WCI  16
OELWEIN        MOCLDY    23  16  74 CALM      30.18F
$$

...ELSEWHERE IN IOWA...


CITY           SKY/WX    TMP DP  RH WIND       PRES   REMARKS
DES MOINES     CLOUDY    34  11  38 SE7       30.15S WCI  28
IOWA CITY      PTCLDY    28  12  51 E7        30.21F WCI  21
FORT DODGE     CLOUDY    30  18  59 E8        30.14S WCI  23
$$

...NORTHERN ILLINOIS...


CITY           SKY/WX    TMP DP  RH WIND       PRES   REMARKS
CHICAGO-OHARE  PTCLDY    22  14  71 N6        30.21S WCI  14
CHICAGO-MIDWAY PTCLDY    27  14  58 N7        30.22S WCI  19
MOLINE         CLEAR     23  13  65 CALM      30.21S
ROCKFORD       CLEAR     22  14  71 CALM      30.25S
PEORIA         FAIR      25  13  60 CALM      30.22S
$$

NOTE: "FAIR" INDICATES FEW OR NO CLOUDS BELOW 12,000 FEET WITH NO
SIGNIFICANT WEATHER AND/OR OBSTRUCTIONS TO VISIBILITY. WIND
SPEEDS ARE IN MILES-PER-HOUR.



USA.gov is the U.S. government's official web portal to all federal, state and local government web resources and services.